TimeCDT,TemperatureF,Dew PointF,Humidity,Sea Level PressureIn,VisibilityMPH,Wind Direction,Wind SpeedMPH,Gust SpeedMPH,PrecipitationIn,Events,Conditions,WindDirDegrees,DateUTC
12:15 AM,74.5,58.8,58,29.90,10.0,East,4.6,-,N/A,,Clear,90,2013-05-18 05:15:00
12:35 AM,73.8,59.0,60,29.89,10.0,ENE,5.8,-,N/A,,Clear,60,2013-05-18 05:35:00
12:55 AM,75.9,55.4,49,29.88,10.0,SE,16.1,21.9,N/A,,Clear,140,2013-05-18 05:55:00
1:15 AM,79.0,58.5,49,29.89,10.0,SSE,16.1,23.0,N/A,,Clear,150,2013-05-18 06:15:00
1:35 AM,77.2,59.9,55,29.85,10.0,ENE,6.9,27.6,N/A,,Clear,70,2013-05-18 06:35:00
1:55 AM,77.4,57.9,51,29.89,10.0,SSE,11.5,24.2,N/A,,Clear,160,2013-05-18 06:55:00
2:15 AM,77.0,51.1,40,29.90,10.0,SSW,21.9,25.3,N/A,,Clear,210,2013-05-18 07:15:00
2:35 AM,77.0,53.2,44,29.91,10.0,North,-9999.0,-,N/A,,Clear,0,2013-05-18 07:35:00
2:55 AM,82.2,32.9,17,29.89,10.0,SSW,8.1,-,N/A,,Scattered Clouds,210,2013-05-18 07:55:00
3:15 AM,79.0,36.7,22,29.88,10.0,SSW,8.1,-,N/A,,Clear,210,2013-05-18 08:15:00
3:35 AM,76.6,35.2,22,29.86,10.0,South,9.2,-,N/A,,Clear,170,2013-05-18 08:35:00
3:55 AM,73.6,35.4,25,29.85,10.0,SE,10.4,-,N/A,,Clear,140,2013-05-18 08:55:00
4:15 AM,69.4,35.6,29,29.85,10.0,SE,8.1,-,N/A,,Clear,130,2013-05-18 09:15:00
4:35 AM,72.1,37.0,28,29.85,10.0,SE,11.5,-,N/A,,Clear,140,2013-05-18 09:35:00
4:55 AM,69.4,37.9,32,29.85,10.0,SE,9.2,-,N/A,,Clear,130,2013-05-18 09:55:00
5:15 AM,68.2,39.4,35,29.84,10.0,SE,8.1,-,N/A,,Clear,130,2013-05-18 10:15:00
5:35 AM,67.8,41.0,38,29.85,10.0,SE,8.1,-,N/A,,Clear,130,2013-05-18 10:35:00
5:55 AM,66.7,42.1,41,29.85,10.0,SE,12.7,-,N/A,,Clear,140,2013-05-18 10:55:00
6:15 AM,66.2,41.9,41,29.86,10.0,SE,11.5,-,N/A,,Clear,140,2013-05-18 11:15:00
6:35 AM,66.0,41.2,40,29.86,10.0,SSE,11.5,-,N/A,,Clear,150,2013-05-18 11:35:00
6:55 AM,65.5,41.2,41,29.86,10.0,SSE,9.2,-,N/A,,Clear,160,2013-05-18 11:55:00
7:15 AM,64.9,41.0,42,29.87,10.0,South,8.1,-,N/A,,Clear,170,2013-05-18 12:15:00
7:35 AM,63.7,41.0,43,29.87,10.0,SSW,4.6,-,N/A,,Clear,210,2013-05-18 12:35:00
7:55 AM,65.3,40.5,40,29.88,10.0,SSW,4.6,-,N/A,,Clear,210,2013-05-18 12:55:00
8:15 AM,67.3,38.8,35,29.88,7.0,SW,5.8,-,N/A,,Clear,230,2013-05-18 13:15:00
8:35 AM,72.9,33.4,24,29.88,7.0,WSW,5.8,-,N/A,,Clear,250,2013-05-18 13:35:00
8:55 AM,75.6,29.3,18,29.88,10.0,WSW,11.5,-,N/A,,Clear,250,2013-05-18 13:55:00
9:15 AM,77.2,28.2,17,29.88,10.0,WSW,12.7,-,N/A,,Clear,250,2013-05-18 14:15:00
9:35 AM,79.9,28.8,15,29.88,10.0,North,-9999.0,-,N/A,,Clear,0,2013-05-18 14:35:00
9:55 AM,82.4,28.2,14,29.88,10.0,North,-9999.0,-,N/A,,Clear,0,2013-05-18 14:55:00
10:15 AM,85.3,27.3,12,29.87,10.0,SW,9.2,-,N/A,,Clear,220,2013-05-18 15:15:00
10:35 AM,88.2,26.8,11,29.87,10.0,SSW,10.4,-,N/A,,Clear,200,2013-05-18 15:35:00
10:55 AM,90.0,26.2,10,29.87,10.0,SW,12.7,17.3,N/A,,Clear,220,2013-05-18 15:55:00
11:15 AM,91.2,23.5,9,29.87,10.0,SW,11.5,18.4,N/A,,Clear,220,2013-05-18 16:15:00
11:35 AM,91.8,25.3,9,29.86,10.0,WSW,9.2,-,N/A,,Clear,240,2013-05-18 16:35:00
11:55 AM,92.1,25.0,9,29.86,10.0,SSW,11.5,17.3,N/A,,Clear,200,2013-05-18 16:55:00
12:15 PM,92.8,25.5,9,29.85,10.0,South,12.7,18.4,N/A,,Clear,190,2013-05-18 17:15:00
12:35 PM,93.4,23.5,8,29.85,10.0,SSW,11.5,18.4,N/A,,Clear,210,2013-05-18 17:35:00
12:55 PM,94.3,21.9,7,29.84,10.0,SSW,12.7,23.0,N/A,,Clear,200,2013-05-18 17:55:00
1:15 PM,94.8,21.6,7,29.83,10.0,SSW,12.7,20.7,N/A,,Clear,200,2013-05-18 18:15:00
1:35 PM,95.7,21.0,7,29.83,10.0,North,-9999.0,-,N/A,,Clear,0,2013-05-18 18:35:00
2:15 PM,95.0,20.3,7,29.81,10.0,SSW,17.3,-,N/A,,Clear,210,2013-05-18 19:15:00
2:35 PM,95.7,22.1,7,29.81,10.0,North,-9999.0,-,N/A,,Clear,0,2013-05-18 19:35:00
2:55 PM,95.2,21.4,7,29.80,10.0,SSW,23.0,29.9,N/A,,Clear,200,2013-05-18 19:55:00
3:15 PM,95.7,21.7,7,29.80,10.0,North,-9999.0,-,N/A,,Clear,0,2013-05-18 20:15:00
3:35 PM,96.1,21.9,7,29.80,10.0,SSW,18.4,27.6,N/A,,Clear,210,2013-05-18 20:35:00
3:55 PM,93.4,21.6,7,29.78,10.0,SW,15.0,-,N/A,,Clear,220,2013-05-18 20:55:00
4:15 PM,96.1,20.1,6,29.78,10.0,North,-9999.0,-,N/A,,Clear,0,2013-05-18 21:15:00
4:35 PM,95.5,19.6,6,29.78,10.0,North,-9999.0,-,N/A,,Clear,0,2013-05-18 21:35:00
4:55 PM,95.2,19.8,7,29.77,10.0,North,-9999.0,-,N/A,,Clear,0,2013-05-18 21:55:00
5:15 PM,94.6,18.0,6,29.77,10.0,North,-9999.0,-,N/A,,Clear,0,2013-05-18 22:15:00
5:35 PM,93.6,18.3,6,29.76,10.0,North,-9999.0,-,N/A,,Clear,0,2013-05-18 22:35:00
5:55 PM,92.7,18.1,7,29.76,10.0,North,-9999.0,-,N/A,,Clear,0,2013-05-18 22:55:00
6:15 PM,92.5,17.2,6,29.75,10.0,North,-9999.0,-,N/A,,Clear,0,2013-05-18 23:15:00
6:35 PM,92.7,17.6,6,29.74,10.0,North,-9999.0,-,N/A,,Clear,0,2013-05-18 23:35:00
6:55 PM,92.3,17.8,7,29.73,10.0,West,20.7,-,N/A,,Clear,260,2013-05-18 23:55:00
7:15 PM,91.2,17.6,7,29.73,10.0,North,-9999.0,-,N/A,,Clear,0,2013-05-19 00:15:00
7:35 PM,90.7,18.0,7,29.73,10.0,North,-9999.0,-,N/A,,Clear,0,2013-05-19 00:35:00
7:55 PM,89.1,17.8,7,29.72,10.0,North,-9999.0,-,N/A,,Clear,0,2013-05-19 00:55:00
8:15 PM,86.5,18.0,8,29.72,7.0,West,13.8,-,N/A,,Clear,260,2013-05-19 01:15:00
8:35 PM,81.0,18.3,10,29.72,7.0,West,8.1,-,N/A,,Clear,260,2013-05-19 01:35:00
8:55 PM,78.3,19.4,11,29.72,2.0,WSW,6.9,-,N/A,,Haze,240,2013-05-19 01:55:00
9:15 PM,76.8,19.6,12,29.72,2.0,West,10.4,-,N/A,,Haze,260,2013-05-19 02:15:00
9:35 PM,73.9,19.6,13,29.73,1.8,North,-9999.0,-,N/A,,Haze,0,2013-05-19 02:35:00
9:55 PM,72.7,21.9,15,29.73,1.2,WSW,6.9,-,N/A,,Haze,240,2013-05-19 02:55:00
10:15 PM,68.9,19.8,15,29.74,3.0,SW,4.6,-,N/A,,Haze,230,2013-05-19 03:15:00
10:35 PM,67.8,23.4,19,29.74,1.5,West,4.6,-,N/A,,Haze,260,2013-05-19 03:35:00
10:55 PM,69.3,21.2,16,29.75,7.0,WNW,11.5,-,N/A,,Clear,290,2013-05-19 03:55:00
11:15 PM,66.7,21.6,18,29.75,10.0,West,8.1,-,N/A,,Clear,280,2013-05-19 04:15:00
11:35 PM,71.1,19.0,14,29.76,10.0,WNW,11.5,-,N/A,,Clear,290,2013-05-19 04:35:00
11:55 PM,65.8,22.8,20,29.76,10.0,WNW,10.4,-,N/A,,Clear,290,2013-05-19 04:55:00